AI9F Weather Reports


Display with metric or nautical units.
time (UTC)temp
F
wind
direction
speed
MPH
gust
MPH
rain 1hr
in
rain 24hr
in
rain mn
in
humidity
%
barometer
mb
20260504060235 57 152 0.0 0.0 0.00 0.00 0.00 63 1010.1
20260504050703 58 110 0.0 0.0 0.00 0.00 0.00 60 1010.2
20260504050200 57 110 0.0 0.0 0.00 0.00 0.00 59 1010.2
20260504045658 57 110 0.0 0.0 0.00 0.00 0.00 61 1010.5
20260504045152 57 111 0.0 0.0 0.00 0.00 0.00 61 1010.4
20260504044650 57 111 0.0 0.0 0.00 0.00 0.00 60 1010.4
20260504044147 58 111 0.0 0.0 0.00 0.00 0.00 62 1010.5
20260504043644 58 111 0.0 0.0 0.00 0.00 0.00 62 1010.6
20260504043141 58 111 0.0 0.0 0.00 0.00 0.00 62 1010.4
20260504042638 58 111 0.0 0.0 0.00 0.00 0.00 62 1010.6
20260504042135 58 111 0.0 0.0 0.00 0.00 0.00 60 1010.8
20260504041630 58 111 0.0 0.0 0.00 0.00 0.00 60 1010.9
20260504041127 59 111 0.0 0.0 0.00 0.00 0.00 59 1010.9
20260504040624 59 111 0.0 0.0 0.00 0.00 0.00 60 1010.6
20260504040121 60 111 0.0 0.0 0.00 0.00 0.00 55 1011.1
20260504035618 60 111 1.0 1.0 0.00 0.00 0.00 56 1010.9
20260504035114 60 111 0.0 0.0 0.00 0.00 0.00 57 1011.0
20260504034612 59 111 0.0 0.0 0.00 0.00 0.00 57 1011.0
20260504034109 59 111 0.0 0.0 0.00 0.00 0.00 60 1011.0
20260504033607 59 111 0.0 0.0 0.00 0.00 0.00 59 1011.2
20260504033103 59 111 0.0 0.0 0.00 0.00 0.00 59 1011.0
20260504032600 59 111 0.0 0.0 0.00 0.00 0.00 56 1011.1
20260504032058 59 111 0.0 0.0 0.00 0.00 0.00 58 1011.2
20260504031554 59 111 0.0 0.0 0.00 0.00 0.00 58 1011.0
20260504031050 60 111 0.0 0.0 0.00 0.00 0.00 59 1011.3
20260504030548 60 111 0.0 0.0 0.00 0.00 0.00 55 1011.3
20260504030044 60 111 0.0 0.0 0.00 0.00 0.00 55 1011.3
20260504025541 60 111 0.0 0.0 0.00 0.00 0.00 56 1011.1
20260504025038 60 110 0.0 1.0 0.00 0.00 0.00 56 1011.2
20260504024535 60 111 1.0 1.0 0.00 0.00 0.00 56 1011.6
20260504024032 60 133 1.0 0.0 0.00 0.00 0.00 56 1011.1
20260504023528 61 141 1.0 1.0 0.00 0.00 0.00 55 1011.2
20260504023024 61 142 1.0 2.0 0.00 0.00 0.00 52 1010.8
20260504022520 61 140 0.0 0.0 0.00 0.00 0.00 53 1011.1
20260504022017 61 139 1.0 1.0 0.00 0.00 0.00 52 1010.9
20260504021515 60 129 0.0 1.0 0.00 0.00 0.00 53 1010.8
20260504021012 60 138 1.0 1.0 0.00 0.00 0.00 53 1010.9
20260504020508 60 137 0.0 0.0 0.00 0.00 0.00 54 1011.1
20260504020005 60 136 0.0 0.0 0.00 0.00 0.00 53 1011.1
20260504015501 60 137 0.0 0.0 0.00 0.00 0.00 53 1010.8
20260504014957 61 131 0.0 0.0 0.00 0.00 0.00 52 1010.7
20260504014453 61 133 1.0 1.0 0.00 0.00 0.00 52 1010.7
20260504013950 62 126 1.0 1.0 0.00 0.00 0.00 50 1010.8
20260504013449 62 132 1.0 1.0 0.00 0.00 0.00 49 1010.8
20260504012944 62 127 1.0 1.0 0.00 0.00 0.00 49 1010.8
20260504012443 62 134 1.0 1.0 0.00 0.00 0.00 49 1010.7
20260504011940 62 139 1.0 1.0 0.00 0.00 0.00 49 1010.7
20260504011436 62 130 1.0 1.0 0.00 0.00 0.00 50 1010.8
20260504010932 62 123 0.0 0.0 0.00 0.00 0.00 51 1011.1
20260504010428 62 129 0.0 0.0 0.00 0.00 0.00 51 1011.0
20260504005925 63 130 0.0 0.0 0.00 0.00 0.00 50 1010.8
20260504005421 63 99 1.0 1.0 0.00 0.00 0.00 46 1010.9
20260504004919 63 159 2.0 2.0 0.00 0.00 0.00 46 1011.0
20260504004417 64 135 0.0 0.0 0.00 0.00 0.00 48 1011.0
20260504003913 64 100 0.0 0.0 0.00 0.00 0.00 47 1010.8
20260504003410 64 106 1.0 1.0 0.00 0.00 0.00 47 1010.8
20260504002906 65 18 1.0 2.0 0.00 0.00 0.00 45 1010.8
20260504002403 65 119 0.0 0.0 0.00 0.00 0.00 45 1011.0
20260504001901 65 160 0.0 0.0 0.00 0.00 0.00 45 1011.2
20260504001358 66 2 1.0 2.0 0.00 0.00 0.00 44 1011.3
20260504000855 66 163 1.0 1.0 0.00 0.00 0.00 43 1011.6
20260504000354 67 148 1.0 1.0 0.00 0.00 0.00 41 1011.5
20260503235849 67 133 0.0 0.0 0.00 0.00 0.00 39 1011.6
20260503235347 68 263 1.0 1.0 0.00 0.00 0.00 38 1011.8
20260503234844 68 125 1.0 2.0 0.00 0.00 0.00 37 1011.7
20260503234342 68 132 1.0 1.0 0.00 0.00 0.00 39 1011.4
20260503233839 69 0 3.0 3.0 0.00 0.00 0.00 37 1011.6
20260503233335 69 115 1.0 2.0 0.00 0.00 0.00 36 1011.5
20260503232832 70 128 1.0 1.0 0.00 0.00 0.00 37 1011.7
20260503232329 69 130 1.0 1.0 0.00 0.00 0.00 38 1011.4
20260503231827 69 135 2.0 2.0 0.00 0.00 0.00 38 1011.5
20260503231324 69 21 2.0 2.0 0.00 0.00 0.00 36 1011.7
20260503230820 69 263 4.0 6.0 0.00 0.00 0.00 35 1011.6
20260503230317 69 154 4.0 4.0 0.00 0.00 0.00 37 1011.5
20260503225815 69 117 3.0 4.0 0.00 0.00 0.00 35 1011.6
20260503225310 69 306 2.0 2.0 0.00 0.00 0.00 35 1011.6
20260503224807 69 299 2.0 2.0 0.00 0.00 0.00 35 1011.3
20260503224304 69 116 1.0 1.0 0.00 0.00 0.00 37 1011.1
20260503223802 69 154 2.0 2.0 0.00 0.00 0.00 36 1011.1
20260503223259 69 265 4.0 8.0 0.00 0.00 0.00 36 1011.3
20260503222755 69 175 4.0 4.0 0.00 0.00 0.00 36 1011.3
20260503222253 70 175 2.0 3.0 0.00 0.00 0.00 38 1011.1
20260503221751 70 316 4.0 6.0 0.00 0.00 0.00 37 1011.4
20260503221249 69 267 3.0 4.0 0.00 0.00 0.00 36 1011.2
20260503220745 70 187 5.0 6.0 0.00 0.00 0.00 37 1011.4
20260503220243 70 279 3.0 4.0 0.00 0.00 0.00 36 1011.5
20260503215739 70 146 2.0 2.0 0.00 0.00 0.00 39 1011.6
20260503215236 70 155 2.0 2.0 0.00 0.00 0.00 37 1011.8
20260503214734 69 142 3.0 3.0 0.00 0.00 0.00 40 1011.7
20260503214231 69 97 4.0 8.0 0.00 0.00 0.00 39 1011.6
20260503213729 70 7 6.0 9.0 0.00 0.00 0.00 37 1012.2
20260503213226 70 264 4.0 6.0 0.00 0.00 0.00 38 1012.1
20260503212723 70 197 4.0 4.0 0.00 0.00 0.00 40 1012.0
20260503212220 70 136 2.0 2.0 0.00 0.00 0.00 39 1012.1
20260503211718 70 243 6.0 7.0 0.00 0.00 0.00 38 1012.4
20260503211213 69 273 2.0 4.0 0.00 0.00 0.00 37 1012.6
20260503210709 69 290 3.0 4.0 0.00 0.00 0.00 38 1012.8
20260503210207 70 275 5.0 8.0 0.00 0.00 0.00 38 1013.0
20260503205702 69 222 3.0 4.0 0.00 0.00 0.00 38 1012.8
20260503205158 69 139 6.0 8.0 0.00 0.00 0.00 37 1013.2
20260503204655 69 154 1.0 1.0 0.00 0.00 0.00 40 1013.2
20260503204153 69 114 4.0 7.0 0.00 0.00 0.00 38 1013.3
20260503203649 69 165 2.0 2.0 0.00 0.00 0.00 40 1013.4
20260503203147 69 45 4.0 6.0 0.00 0.00 0.00 39 1013.7
20260503202644 69 35 2.0 3.0 0.00 0.00 0.00 40 1013.5
20260503202142 69 164 2.0 2.0 0.00 0.00 0.00 40 1013.6
20260503201640 69 6 3.0 4.0 0.00 0.00 0.00 40 1013.7
20260503201137 69 75 5.0 8.0 0.00 0.00 0.00 41 1013.9
20260503200633 69 119 4.0 6.0 0.00 0.00 0.00 38 1014.2
20260503200130 69 298 4.0 7.0 0.00 0.00 0.00 38 1014.4
20260503195627 68 101 2.0 2.0 0.00 0.00 0.00 44 1014.6
20260503195124 68 326 6.0 8.0 0.00 0.00 0.00 41 1014.7
20260503194621 68 151 2.0 2.0 0.00 0.00 0.00 39 1014.8
20260503194116 68 130 3.0 4.0 0.00 0.00 0.00 41 1015.3
20260503193613 68 237 4.0 10.0 0.00 0.00 0.00 40 1015.0
20260503193108 68 196 2.0 2.0 0.00 0.00 0.00 41 1015.3
20260503192604 68 254 1.0 2.0 0.00 0.00 0.00 41 1015.6
20260503192100 67 31 3.0 4.0 0.00 0.00 0.00 41 1015.7
20260503191557 67 46 3.0 6.0 0.00 0.00 0.00 42 1015.6
20260503191054 68 238 7.0 10.0 0.00 0.00 0.00 39 1015.8
20260503190551 68 287 2.0 3.0 0.00 0.00 0.00 43 1015.8
20260503190048 68 171 4.0 6.0 0.00 0.00 0.00 39 1015.7
20260503185544 66 52 3.0 3.0 0.00 0.00 0.00 45 1015.8
20260503185044 67 260 5.0 9.0 0.00 0.00 0.00 38 1016.0
20260503184540 67 178 6.0 9.0 0.00 0.00 0.00 39 1016.2
20260503184037 66 138 4.0 6.0 0.00 0.00 0.00 46 1016.0
20260503183534 67 206 3.0 4.0 0.00 0.00 0.00 44 1016.0
20260503183031 66 292 4.0 6.0 0.00 0.00 0.00 43 1016.5
20260503182529 66 130 2.0 3.0 0.00 0.00 0.00 42 1016.3
20260503182027 66 136 7.0 10.0 0.00 0.00 0.00 41 1016.7
20260503181524 66 209 7.0 9.0 0.00 0.00 0.00 42 1016.7
20260503181020 66 287 5.0 8.0 0.00 0.00 0.00 39 1016.8
20260503180518 66 148 2.0 3.0 0.00 0.00 0.00 46 1016.9
20260503180015 66 273 6.0 8.0 0.00 0.00 0.00 40 1016.9
20260503175512 66 302 4.0 4.0 0.00 0.00 0.00 45 1017.2
20260503175009 66 280 3.0 10.0 0.00 0.00 0.00 45 1017.3
20260503174507 67 111 1.0 1.0 0.00 0.00 0.00 46 1017.4
20260503174002 66 236 3.0 4.0 0.00 0.00 0.00 42 1017.9
20260503173457 65 351 3.0 3.0 0.00 0.00 0.00 46 1018.1
20260503172954 64 154 1.0 1.0 0.00 0.00 0.00 48 1018.0
20260503172452 65 338 2.0 2.0 0.00 0.00 0.00 47 1018.1
20260503171948 65 285 3.0 3.0 0.00 0.00 0.00 48 1018.1
20260503171445 64 110 2.0 2.0 0.00 0.00 0.00 46 1018.1
20260503170943 64 36 2.0 3.0 0.00 0.00 0.00 46 1018.4
20260503170438 64 341 3.0 3.0 0.00 0.00 0.00 47 1018.5
20260503150831 57 100 1.0 1.0 0.00 0.00 0.00 54 1019.7
20260503150327 57 143 2.0 2.0 0.00 0.00 0.00 51 1019.6
20260503140251 54 102 1.0 1.0 0.00 0.00 0.00 63 1020.3
20260503131221 51 144 0.0 0.0 0.00 0.00 0.00 74 1019.9
20260503130719 50 257 2.0 2.0 0.00 0.00 0.00 77 1019.9
20260503130216 50 348 4.0 4.0 0.00 0.00 0.00 75 1019.8
20260503120141 43 142 1.0 1.0 0.00 0.00 0.00 97 1019.8
20260503110609 39 127 0.0 0.0 0.00 0.00 0.00 97 1019.6
20260503110107 39 127 0.0 0.0 0.00 0.00 0.00 97 1019.5
20260503090456 38 127 0.0 0.0 0.00 0.00 0.00 96 1019.8
20260503081422 39 128 0.0 0.0 0.00 0.00 0.00 95 1019.7
20260503080920 39 128 0.0 0.0 0.00 0.00 0.00 94 1019.6
20260503080416 39 128 0.0 0.0 0.00 0.00 0.00 94 1019.6
20260503072852 39 128 0.0 0.0 0.00 0.00 0.00 94 1019.6
20260503072349 39 128 0.0 0.0 0.00 0.00 0.00 94 1019.7
20260503071846 39 128 0.0 0.0 0.00 0.00 0.00 94 1019.6
20260503071343 39 128 0.0 0.0 0.00 0.00 0.00 94 1019.6
20260503070839 39 128 0.0 0.0 0.00 0.00 0.00 94 1019.8
20260503070337 39 128 0.0 0.0 0.00 0.00 0.00 94 1019.7